Estación municipal de St. Julià de Vilatorta (Osona, E.N.Guilleries-Savassona)

Consulta los datos en tiempo real de la estación municipal de St. Julià de Vilatorta





Hora UTC 08:25
Temperatura 24.6 ºC
Subsuelo 10 cm 26.4 ºC
Humedad 55.1 %
Presión 1021.7 hPa
Pluja 0.0 mm
Velocidad viento 1.6 km/h
Dirección viento SW
Radiación solar 473.0 W/m²
Fuel 7.2 %

Webcam

Datos diarios 2026-09-06



Hora UTC (invierno +1h; verano +2h)
Temperatura (ºC) Humedad (%) Presión (hPa) Velocidad viento (km/h) Precipitación (mm) Fuel (%) Radiación solar (W/m²)
Hora UTC Aire Subsuelo 10 cm Humedad Presión Vel. Dir. Vel. Max Dir. Intent. máx 5 min. Fuel Rad. Sol.
00:05 20.0 15.4 67.6 1022.2 1.6 ESE 1.6 SE 0.0 5.7 0.3
00:10 19.7 15.3 68.5 1022.2 2.5 SE 5.9 ESE 0.0 5.7 0.7
00:15 19.4 15.2 69.5 1022.3 2.1 ESE 2.7 SE 0.0 5.7 0.8
00:20 19.2 15.1 70.3 1022.2 2.1 ESE 2.9 ESE 0.0 5.8 1.0
00:25 19.5 15.0 69.2 1022.2 2.5 ESE 3.9 E 0.0 5.8 1.3
00:30 19.6 15.0 68.9 1022.2 2.0 ESE 3.1 ESE 0.0 5.8 1.2
00:35 19.6 14.9 68.6 1022.1 1.8 SE 2.7 SE 0.0 5.8 1.2
00:40 19.6 14.9 68.7 1022.1 2.9 SE 5.8 SSE 0.0 5.9 0.7
00:45 19.4 14.9 69.8 1022.1 1.6 ESE 2.5 ESE 0.0 5.9 0.2
00:50 19.3 14.9 70.5 1022.1 2.2 ESE 3.2 E 0.0 5.9 0.9
00:55 19.4 14.8 70.1 1022.1 3.0 ESE 4.7 ESE 0.0 5.9 1.0
01:00 19.5 14.8 69.5 1022.0 2.0 ESE 3.6 ESE 0.0 6.0 0.9
01:05 19.5 14.8 69.0 1022.0 2.2 SE 4.2 ESE 0.0 6.0 1.1
01:10 19.6 14.8 68.7 1022.0 2.0 ESE 3.9 ESE 0.0 6.0 0.8
01:15 19.6 14.7 69.3 1022.0 1.5 SE 2.1 SE 0.0 6.0 0.7
01:20 19.4 14.7 69.9 1022.0 1.4 SE 2.4 ESE 0.0 6.0 0.6
01:25 19.4 14.7 70.0 1022.0 1.9 SE 2.8 SE 0.0 6.1 0.9
01:30 19.4 14.6 70.3 1022.0 1.6 SE 2.6 ESE 0.0 6.1 0.8
01:35 19.2 14.6 70.9 1021.9 1.7 ESE 2.5 SE 0.0 6.1 0.7
01:40 19.0 14.5 71.7 1021.9 1.3 SE 2.6 SSE 0.0 6.1 0.9
01:45 18.8 14.5 72.4 1021.9 2.5 SE 4.1 SE 0.0 6.2 0.7
01:50 18.6 14.5 73.4 1021.9 2.0 ESE 3.6 SE 0.0 6.2 0.5
01:55 18.4 14.5 74.6 1021.9 0.8 E 1.4 ESE 0.0 6.2 0.8
02:00 18.5 14.4 74.1 1021.9 1.2 E 3.1 SE 0.0 6.2 1.3
02:05 18.7 14.4 73.3 1021.9 2.6 SE 3.7 SE 0.0 6.3 1.2
02:10 18.7 14.4 73.2 1021.9 0.6 E 1.5 SE 0.0 6.3 0.2
02:15 18.5 14.4 74.1 1021.9 1.5 ESE 3.0 SE 0.0 6.3 0.8
02:20 18.4 14.3 74.3 1021.9 2.0 ESE 2.9 ESE 0.0 6.3 0.9
02:25 18.6 14.2 74.0 1021.9 2.1 SE 2.8 SE 0.0 6.4 1.0
02:30 18.6 14.2 73.9 1021.8 2.2 ESE 2.8 SE 0.0 6.4 0.8
02:35 18.5 14.1 74.0 1021.8 1.9 SE 2.7 SE 0.0 6.4 1.0
02:40 18.6 14.1 73.9 1021.8 2.3 ESE 3.4 SE 0.0 6.5 0.9
02:45 18.5 14.1 74.0 1021.8 2.1 SE 2.8 ESE 0.0 6.5 0.7
02:50 18.5 14.0 74.0 1021.8 2.0 SE 2.8 SE 0.0 6.5 0.4
02:55 18.5 14.0 74.0 1021.8 2.1 ESE 3.2 SE 0.0 6.5 0.7
03:00 18.5 13.9 73.9 1021.8 1.7 ESE 2.6 SE 0.0 6.6 1.0
03:05 18.3 13.9 74.4 1021.8 1.5 SE 2.3 SE 0.0 6.6 0.8
03:10 18.2 13.9 75.2 1021.8 1.1 ESE 1.6 ESE 0.0 6.6 0.5
03:15 18.1 13.9 75.3 1021.8 1.1 SE 2.4 ESE 0.0 6.6 0.3
03:20 18.0 13.8 76.0 1021.7 2.0 SE 2.6 SE 0.0 6.7 0.7
03:25 17.9 13.7 76.4 1021.7 1.2 ESE 2.2 SE 0.0 6.7 0.6
03:30 17.6 13.7 77.4 1021.7 1.3 ESE 1.9 SE 0.0 6.7 0.6
03:35 17.5 13.6 77.8 1021.7 0.9 SE 1.7 SE 0.0 6.7 0.8
03:40 17.5 13.5 78.2 1021.7 1.3 SE 2.0 SE 0.0 6.7 0.7
03:45 17.3 13.5 78.2 1021.7 2.3 SE 3.1 SE 0.0 6.8 0.8
03:50 17.1 13.4 79.3 1021.7 1.7 SE 2.6 SE 0.0 6.8 0.8
03:55 17.2 13.4 79.6 1021.6 1.9 SE 2.6 SE 0.0 6.9 1.1
04:00 17.2 13.3 79.4 1021.6 1.6 SE 2.3 SE 0.0 6.9 1.1
04:05 17.3 13.3 79.3 1021.6 1.7 SE 2.6 SE 0.0 6.9 0.8
04:10 17.2 13.2 79.5 1021.6 1.4 ESE 1.9 E 0.0 7.0 1.1
04:15 17.3 13.2 79.0 1021.5 1.8 SE 2.6 SE 0.0 7.0 0.9
04:20 17.3 13.1 79.0 1021.5 1.6 SE 2.1 SE 0.0 7.0 0.7
04:25 17.3 13.1 79.2 1021.5 1.3 SE 1.9 SE 0.0 7.1 0.6
04:30 17.3 13.0 79.4 1021.5 1.4 ESE 2.1 E 0.0 7.1 0.8
04:35 17.3 12.9 79.0 1021.5 2.1 SE 3.0 ESE 0.0 7.1 0.9
04:40 17.4 12.9 78.7 1021.5 1.9 SE 2.8 SE 0.0 7.2 0.6
04:45 17.3 12.9 78.6 1021.4 2.1 SE 3.1 SE 0.0 7.2 0.5
04:50 17.1 12.9 79.5 1021.4 2.0 ESE 2.8 ESE 0.0 7.2 0.5
04:55 17.1 12.9 79.4 1021.4 2.0 SE 2.7 SE 0.0 7.2 0.8
05:00 17.1 12.8 79.3 1021.4 2.7 ESE 3.6 ESE 0.0 7.3 1.0
05:05 17.1 12.8 79.6 1021.4 1.7 ESE 3.0 E 0.0 7.3 0.9
05:10 17.1 12.8 79.3 1021.4 2.0 SE 2.8 SE 0.0 7.3 1.2
05:15 17.3 12.7 78.5 1021.4 2.5 SE 3.1 SE 0.0 7.4 1.5
05:20 17.3 12.8 78.4 1021.4 2.2 SE 3.4 SE 0.0 7.4 2.6
05:25 17.1 12.8 79.3 1021.4 2.1 ESE 4.0 ESE 0.0 7.4 4.6
05:30 17.0 13.0 80.0 1021.4 1.6 ESE 3.2 ESE 0.0 7.4 7.5
05:35 17.0 13.2 79.7 1021.5 2.2 ESE 3.6 ESE 0.0 7.5 11.4
05:40 17.0 13.3 79.7 1021.5 1.3 SE 3.2 SE 0.0 7.5 15.6
05:45 17.1 13.3 79.6 1021.6 2.3 ESE 3.6 E 0.0 7.5 20.6
05:50 17.1 13.4 79.7 1021.6 2.0 ESE 3.0 SE 0.0 7.5 25.4
05:55 17.2 13.5 79.5 1021.6 2.3 ESE 3.6 ESE 0.0 7.6 31.0
06:00 17.3 13.7 79.0 1021.6 2.1 SE 2.9 ESE 0.0 7.6 36.0
06:05 17.4 14.0 79.0 1021.6 2.5 SE 3.2 SE 0.0 7.6 41.1
06:10 17.6 14.3 77.9 1021.6 2.2 SE 3.1 SE 0.0 7.6 45.9
06:15 17.7 14.6 77.8 1021.6 1.3 SSE 2.9 SE 0.0 7.6 50.8
06:20 17.8 14.9 78.0 1021.7 1.2 SE 1.9 SE 0.0 7.6 56.2
06:25 17.9 15.2 78.1 1021.7 1.1 SE 1.6 SE 0.0 7.7 61.3
06:30 18.2 15.4 77.0 1021.8 1.5 SE 2.6 SE 0.0 7.7 67.2
06:35 18.4 15.8 76.5 1021.8 1.9 SE 3.6 ESE 0.0 7.7 72.6
06:40 18.6 16.1 76.0 1021.8 1.2 SE 1.7 SE 0.0 7.7 89.5
06:45 18.8 16.5 75.3 1021.8 0.8 SSE 1.4 SSE 0.0 7.7 107.4
06:50 19.0 16.8 75.0 1021.8 0.5 SW 0.9 WNW 0.0 7.7 159.4
06:55 19.3 16.9 73.6 1021.8 1.2 W 2.1 W 0.0 7.7 180.8
07:00 19.6 17.2 72.9 1021.8 1.5 SW 2.9 SW 0.0 7.7 199.8
07:05 19.9 17.6 72.9 1021.8 2.0 WSW 4.5 WSW 0.0 7.7 224.6
07:10 20.3 18.0 70.8 1021.8 1.9 SW 3.1 SW 0.0 7.7 243.9
07:15 21.1 18.4 67.1 1021.8 1.9 SSW 3.3 SW 0.0 7.7 260.2
07:20 21.7 19.0 65.3 1021.8 1.3 SW 3.6 SSW 0.0 7.6 266.5
07:25 21.7 19.9 64.3 1021.8 2.5 WNW 5.4 NNW 0.0 7.6 271.5
07:30 21.4 20.8 67.0 1021.8 1.7 W 3.1 NW 0.0 7.6 286.0
07:35 21.8 21.5 66.0 1021.8 2.0 W 3.2 SW 0.0 7.6 307.1
07:40 22.3 22.0 63.8 1021.8 1.7 WSW 3.4 SW 0.0 7.6 311.6
07:45 22.6 22.4 62.6 1021.8 2.0 W 3.8 SSW 0.0 7.5 312.9
07:50 22.6 22.7 62.0 1021.8 1.6 WSW 3.2 W 0.0 7.5 326.4
07:55 22.8 23.1 60.5 1021.8 2.0 WSW 4.2 SSW 0.0 7.4 347.4
08:00 23.0 23.5 59.0 1021.8 2.9 W 4.9 W 0.0 7.4 377.3
08:05 22.6 24.0 60.5 1021.8 2.7 WNW 4.9 NW 0.0 7.3 403.7
08:10 22.7 24.5 60.2 1021.8 2.8 WNW 5.8 NW 0.0 7.3 429.1
08:15 22.9 25.0 60.0 1021.8 2.4 WNW 4.8 NNW 0.0 7.2 447.2
08:20 23.4 25.7 58.7 1021.7 1.8 W 4.2 WNW 0.0 7.2 458.1
08:25 24.6 26.4 55.1 1021.7 1.6 SW 4.6 WSW 0.0 7.2 473.0
Máxima 24.6 26.4 80.0 1022.3 3.0 ESE 5.9 ESE 0.0 7.7 473.0
Mínima 17.0 12.7 55.1 1021.4 5.7
Total 0.0